Location: Baggettsville
(36.4767°N, 86.7303°W)
Time: 22:10:35
(UTC+00:00)

ISS - Pass Details

Date: 02 October 2021
Orbit: 417 x 423 km, 51.6° (Epoch: 21 October)

Event Time Altitude Azimuth Distance (km) Brightness Sun altitude
Rises 00:28:27 0° 324° (NW) 2,364 0.7 -12.6°
Reaches altitude 10° 00:31:28 10° 353° (N) 1,499 -0.8 -13.2°
Maximum altitude 00:33:08 13° 23° (NNE) 1,326 -1.4 -13.5°
Enters shadow 00:34:03 12° 41° (NE) 1,381 -1.5 -13.7°
